GFSCGP_prec_cloud_057.txt.gz
Cloud_Cover
29 5 5 5 4 0 0 0 0 0 0 0 0 0 0 0 0 0 5 5 0 0 0 0 0 0 0 0 0 0 8 5 1 30 78 100 100 100 100 100 100 100 100 100
5 5 5 5 5 5 2 5 5 0 0 0 0 0 0 0 0 0 0 5 5 0 0 0 0 0 0 0 0 0 0 0 0 0 26 100 100 93 100 100 100 100 100 100
5 5 6 5 5 7 7 5 5 3 0 0 0 1 1 5 2 2 5 5 5 5 0 0 0 0 0 0 0 0 0 0 0 0 23 100 100 100 100 100 100 100 100 100
5 6 46 93 46 8 6 5 5 0 0 0 0 1 56 36 5 12 20 5 5 5 1 0 0 0 0 0 0 0 0 0 0 0 56 93 44 99 100 100 100 100 100 100
92 77 7 10 41 7 5 5 5 5 2 0 0 0 96 100 100 100 100 37 5 0 0 0 0 0 0 0 0 0 5 0 0 1 45 100 1 27 0 56 72 69 100 100
100 100 100 77 92 87 61 43 28 5 4 0 0 0 96 100 90 100 100 95 45 2 0 0 0 0 0 0 0 5 18 19 4 0 1 48 0 96 18 5 45 100 100 100
100 100 100 100 100 100 83 9 5 8 5 2 0 0 95 100 24 70 100 100 87 88 3 0 0 0 0 0 0 43 34 52 11 47 26 33 81 100 2 9 99 100 100 100
100 100 100 100 100 100 100 100 86 28 18 5 0 0 90 100 100 76 34 51 42 99 5 0 0 0 0 0 2 28 86 51 10 48 100 100 100 82 79 100 100 100 100 100
100 100 100 100 100 100 100 70 99 40 5 5 0 0 5 100 100 100 100 13 77 1 0 2 0 0 0 0 0 28 93 65 1 3 45 93 96 38 35 97 11 100 100 100
100 35 94 100 100 91 100 100 100 100 86 5 0 0 3 100 100 100 21 49 76 73 0 0 0 0 0 0 4 18 61 52 2 0 18 77 90 67 6 21 95 100 100 100
100 100 51 33 58 100 100 100 98 92 60 13 3 0 5 79 100 100 99 3 11 6 3 0 0 0 1 5 2 29 55 49 2 1 17 92 100 97 20 6 100 100 100 100
100 100 7 12 32 5 5 8 69 37 6 8 12 0 98 100 23 50 100 100 7 5 0 0 0 0 0 0 10 34 55 28 5 5 14 95 100 100 50 46 100 100 100 100
100 100 32 21 6 15 21 21 85 90 47 5 2 1 100 29 74 100 100 6 18 26 0 0 0 0 0 0 1 21 31 14 18 5 5 85 100 90 100 66 100 100 100 100
100 100 11 5 5 5 40 22 93 100 100 1 3 14 100 100 100 100 100 48 80 57 5 4 0 0 0 0 4 5 0 1 5 5 5 24 98 70 100 94 100 100 100 100
100 100 58 5 20 40 5 5 95 100 11 93 2 4 95 100 100 100 100 19 4 5 5 4 0 0 1 1 5 6 5 5 5 41 100 100 100 93 100 100 100 100 100 100
100 100 100 98 10 39 88 65 86 13 5 98 0 0 100 100 100 98 100 78 93 100 88 20 8 5 5 5 5 5 5 5 5 94 100 100 100 100 100 100 100 100 100 100
100 100 100 90 24 100 100 22 5 42 43 5 4 5 100 100 100 100 54 76 100 100 72 39 5 5 5 6 8 13 16 49 15 81 100 100 100 100 100 100 100 100 100 100
100 100 100 100 98 100 16 28 5 5 5 60 59 41 100 100 100 100 100 100 100 100 100 94 90 100 100 100 100 100 100 100 100 99 100 100 100 100 100 100 100 100 100 100
100 100 100 100 100 100 89 0 59 100 90 100 100 13 99 100 66 81 100 100 100 100 100 100 100 100 100 100 100 100 100 100 100 100 100 100 100 100 100 100 100 100 100 100
12 43 100 100 100 100 49 7 20 100 100 27 54 17 100 100 68 97 91 51 61 88 99 100 100 100 100 100 100 100 100 100 100 100 100 100 100 100 100 100 100 100 100 100
100 100 100 100 100 89 30 100 100 100 88 47 100 100 100 99 57 39 100 100 100 100 100 100 100 100 100 100 100 100 100 100 100 100 100 100 100 100 100 100 100 100 100 100
92 100 99 97 100 100 30 100 100 100 100 100 100 100 100 100 77 89 85 100 100 99 100 98 100 100 100 100 100 100 100 100 100 100 100 100 100 100 100 100 100 100 100 100
82 78 81 100 67 98 100 100 81 100 100 100 100 100 100 98 100 100 100 100 81 75 99 100 100 100 100 100 100 100 100 100 100 100 100 100 100 100 100 100 100 100 100 100
100 58 100 100 20 96 100 87 100 100 100 100 100 100 100 100 100 100 100 100 100 100 100 92 85 98 100 100 100 100 100 100 95 99 100 100 100 97 100 100 100 100 100 100
94 100 100 66 38 57 27 100 57 87 100 99 100 100 100 100 100 100 100 100 100 100 100 100 100 100 100 100 100 100 100 100 100 100 100 100 100 100 100 100 100 100 100 100
71 64 92 90 99 98 6 99 100 100 100 99 100 100 100 100 100 100 100 100 100 100 100 100 100 100 94 100 100 100 100 100 100 100 100 100 100 100 100 100 100 100 100 100

GFSCGP_prec_cloud_060.txt.gz
Cloud_Cover
100 100 100 36 5 5 5 5 0 0 0 0 0 0 0 0 0 0 0 0 0 0 0 0 0 0 0 0 0 0 0 0 0 0 0 7 87 100 100 100 100 100 100 100
100 88 61 30 16 5 5 3 0 0 0 0 0 0 0 0 0 0 0 0 0 0 0 0 0 0 0 0 0 0 0 0 0 0 0 0 26 92 100 100 100 100 100 100
100 100 30 18 9 5 8 5 4 0 0 0 0 0 0 0 0 2 4 0 0 0 0 0 0 0 0 0 0 0 0 0 0 0 0 1 10 72 100 100 100 100 100 100
100 100 100 97 83 8 5 5 3 0 0 0 0 0 0 1 0 5 5 0 0 0 0 0 0 0 0 0 0 0 0 0 0 0 0 0 6 96 100 89 82 100 100 100
100 100 84 72 83 5 5 5 5 5 0 0 0 0 59 7 6 6 5 5 0 0 0 0 0 0 0 0 0 0 0 0 0 0 0 0 0 95 100 53 97 100 100 100
100 100 100 100 100 100 8 5 5 5 2 0 0 0 89 65 100 100 8 10 4 1 2 1 0 0 0 0 0 0 0 0 0 0 0 0 0 58 88 100 100 100 100 100
100 100 100 100 100 100 100 96 33 8 5 0 0 0 92 95 100 100 100 100 60 13 6 11 5 0 0 0 0 0 0 0 0 0 0 0 0 74 21 26 100 100 100 100
100 100 100 100 100 100 100 100 34 7 56 71 4 0 16 100 72 100 100 100 100 100 50 17 5 0 0 0 0 0 0 0 0 0 0 0 35 94 89 15 25 61 52 3
100 100 100 100 100 100 100 100 100 80 9 4 0 1 5 100 100 68 15 16 99 100 100 72 5 0 0 0 0 0 0 0 0 1 2 5 5 1 23 0 64 27 6 91
84 47 49 98 100 100 100 100 100 100 76 11 5 4 0 100 90 99 100 100 34 100 72 6 0 0 0 0 0 4 5 5 5 5 5 5 3 0 4 24 100 98 99 100
84 52 5 9 16 100 100 100 99 99 85 48 4 1 2 34 53 85 28 86 59 89 5 5 0 0 0 0 2 1 0 1 5 2 5 5 4 26 40 100 100 97 93 36
100 90 63 8 22 18 54 5 39 17 4 81 73 0 5 23 87 83 47 98 98 5 5 5 88 0 0 0 0 0 0 0 0 5 5 5 5 11 71 100 96 44 34 46
100 100 41 6 5 5 49 69 77 100 100 32 5 1 99 4 5 40 100 55 76 4 0 0 20 100 45 1 0 0 0 0 5 4 0 4 4 0 26 71 89 68 40 24
100 100 70 4 10 12 5 5 12 98 99 4 5 0 6 8 96 100 100 89 6 0 5 4 5 5 5 1 5 4 0 0 5 5 2 0 0 1 15 47 100 96 85 100
100 100 64 5 5 20 64 53 51 100 2 5 0 3 0 99 100 96 22 12 1 5 5 5 5 5 5 11 3 0 0 0 5 5 4 5 5 5 18 92 100 80 100 100
100 100 100 100 6 39 100 91 98 12 5 99 4 1 75 100 74 32 46 4 5 5 2 4 5 22 5 5 75 100 100 88 65 100 100 57 91 42 22 98 100 88 100 100
100 100 100 97 26 100 100 47 5 16 6 2 5 1 91 100 100 100 86 66 19 10 8 5 5 9 34 48 66 100 100 100 100 100 99 85 98 100 100 100 100 100 100 100
100 100 100 100 100 100 2 5 24 53 5 46 50 5 98 100 100 76 20 58 5 28 18 56 34 33 55 92 82 84 60 92 100 100 100 100 100 100 100 100 100 100 100 100
100 100 100 100 94 85 6 5 70 100 7 49 49 7 93 100 100 77 100 100 8 25 5 5 38 100 96 92 98 100 100 99 100 100 100 100 100 100 100 100 100 100 100 100
5 14 79 100 100 90 36 39 55 100 98 4 5 5 94 100 100 30 100 63 74 98 98 25 6 28 88 100 100 100 100 100 100 100 100 100 100 100 100 100 100 100 100 100
100 100 100 100 100 96 3 45 71 59 17 5 53 25 100 37 100 100 96 50 87 38 11 40 100 99 91 86 86 98 100 100 100 100 100 100 100 100 100 100 100 100 100 100
5 75 92 100 100 99 0 3 60 42 63 64 52 67 87 98 100 89 100 92 67 83 98 99 100 100 98 99 98 99 100 100 100 100 100 100 100 100 100 100 100 100 100 100
3 8 5 35 19 6 79 98 99 100 92 100 100 100 100 88 77 100 99 100 100 100 100 100 16 76 83 75 60 100 95 75 88 80 96 100 100 100 100 100 100 100 100 100
96 54 20 36 4 4 2 94 100 100 99 100 100 80 94 95 100 100 100 64 96 100 100 100 100 97 72 56 62 46 90 82 99 100 97 100 100 98 100 100 100 100 100 100
27 27 98 38 24 100 48 100 93 98 100 98 97 100 100 100 100 100 100 100 74 95 98 99 100 100 100 100 100 100 100 100 91 89 94 100 100 100 100 100 100 100 100 100
2 10 78 41 86 100 8 100 100 94 19 42 5 24 96 100 100 100 100 100 100 92 98 100 100 100 100 100 100 100 100 100 100 100 100 100 100 100 100 100 100 100 100 100

GFSCGP_prec_cloud_063.txt.gz
Cloud_Cover
100 94 100 100 100 75 100 87 42 5 4 2 3 0 0 0 0 0 0 0 0 0 0 0 0 0 0 0 0 0 0 0 0 0 0 0 0 59 100 100 100 100 100 98
100 100 100 100 74 90 56 37 35 12 5 5 5 3 0 0 0 0 0 0 0 0 0 0 0 0 0 0 0 0 0 0 0 0 0 0 0 0 70 100 100 100 100 100
100 100 100 100 94 74 79 67 55 30 5 4 2 4 2 0 0 0 0 0 0 0 0 0 0 0 0 0 0 0 0 0 0 0 0 0 0 1 80 99 100 100 100 100
100 100 100 100 100 100 100 40 5 5 5 5 1 0 0 0 0 0 0 0 0 0 0 0 0 0 0 0 0 0 0 0 0 0 0 0 0 0 0 8 50 100 100 100
100 100 100 100 100 100 100 51 5 5 5 0 0 0 5 0 2 0 0 0 0 0 0 0 0 0 1 0 0 0 0 0 0 0 0 0 0 0 0 6 20 100 100 100
100 100 100 96 100 100 85 9 29 10 5 0 3 0 18 5 25 5 2 5 1 0 0 0 0 0 1 0 0 0 0 0 0 0 0 0 0 0 0 33 42 100 100 100
100 91 98 100 100 100 100 99 93 24 5 0 0 0 95 6 43 100 90 27 5 1 0 0 0 0 3 5 3 0 0 0 0 0 0 0 0 0 0 1 22 67 100 100
100 100 100 100 100 100 100 100 100 79 48 17 4 2 98 18 56 77 100 100 67 88 48 5 5 5 5 5 5 4 0 0 1 0 0 0 0 0 0 2 6 25 18 57
100 100 100 100 100 100 100 100 100 64 33 5 5 15 8 100 100 78 22 81 100 100 100 100 100 100 10 5 5 5 3 5 5 5 5 1 0 0 0 0 0 15 69 89
27 5 26 90 100 100 100 100 100 100 88 86 26 64 6 100 100 100 100 83 86 100 100 100 100 100 100 58 5 5 2 0 3 60 39 33 8 4 5 3 0 40 33 94
24 5 5 5 5 69 98 94 29 100 89 100 68 4 89 100 100 100 100 100 26 18 36 93 100 89 51 50 5 1 2 0 0 0 8 18 5 5 5 5 5 1 4 5
14 7 5 5 5 5 5 5 38 22 5 46 100 1 38 100 100 85 100 31 70 6 5 0 0 1 5 5 1 0 0 0 0 0 0 5 81 50 5 5 3 3 5 4
72 79 54 24 14 5 5 5 93 79 96 85 9 0 97 4 4 99 100 100 63 21 5 0 0 0 0 0 0 0 5 0 0 0 5 5 56 27 5 5 5 5 5 8
100 100 60 26 16 87 89 45 90 100 100 4 4 1 56 65 56 80 100 85 5 0 0 0 4 5 2 2 1 5 5 4 4 0 0 0 5 5 5 5 5 5 5 94
100 100 99 27 24 89 98 100 86 99 6 85 2 5 5 100 100 99 34 71 81 2 2 5 12 99 100 10 0 0 5 5 76 96 5 3 5 5 12 47 64 74 34 77
100 100 100 84 35 78 98 32 99 99 52 69 16 9 98 100 100 89 100 100 4 2 1 3 1 0 0 0 0 0 1 5 6 64 100 82 6 12 74 97 100 100 100 100
100 100 100 83 41 100 100 4 5 5 5 12 42 2 7 39 100 100 94 7 4 59 35 6 6 5 4 0 4 5 22 54 98 99 100 97 100 100 100 100 100 100 100 100
50 95 100 100 100 100 2 5 5 5 5 12 100 16 1 3 65 100 35 13 87 68 32 90 9 5 5 2 2 4 5 18 36 69 97 100 100 100 100 100 100 100 100 100
100 42 77 100 100 90 18 5 18 79 27 38 98 85 5 5 27 0 61 100 6 5 5 5 5 23 5 5 5 5 5 5 5 14 36 88 97 100 100 100 100 100 100 100
68 18 98 90 96 28 13 8 100 100 100 67 53 69 12 71 97 6 99 5 12 38 6 5 37 95 100 31 21 60 73 75 29 82 21 32 99 100 100 100 100 100 100 100
42 82 87 100 100 89 5 5 66 98 8 90 13 12 92 63 49 93 100 100 73 72 100 54 9 68 100 100 100 95 82 75 97 100 91 93 100 100 100 100 100 100 100 100
23 29 29 38 100 87 0 0 29 76 13 85 96 100 87 100 4 4 4 5 7 29 71 66 5 28 100 100 99 100 100 100 76 30 56 89 62 92 96 51 62 99 100 100
4 0 0 2 8 4 8 9 98 88 73 100 100 100 100 96 100 100 97 83 16 5 5 12 22 34 11 94 100 100 100 100 60 100 82 94 98 35 92 100 100 98 95 100
1 1 74 23 0 0 0 0 0 76 5 5 8 6 39 100 99 98 100 100 100 98 71 13 98 53 70 100 100 100 100 100 100 100 100 100 100 100 100 100 98 85 100 99
24 93 58 42 1 26 5 80 100 86 88 64 10 5 5 64 5 82 94 100 52 99 100 100 100 100 84 100 100 100 100 100 99 100 100 100 100 100 100 100 58 67 87 98
0 2 17 11 2 31 5 54 100 94 99 100 76 5 5 30 50 10 100 100 100 95 84 69 99 100 100 100 100 100 100 87 91 100 100 100 100 100 100 100 100 100 100 100

GFSCGP_prec_cloud_069.txt.gz
Cloud_Cover
100 100 100 99 59 86 89 85 44 5 5 3 14 65 100 27 51 6 5 4 0 0 0 0 0 0 0 0 0 0 0 0 0 0 0 0 0 28 40 20 10 48 75 98
100 100 100 93 81 66 36 72 18 5 5 4 10 88 30 5 72 5 21 4 0 0 0 0 0 0 0 0 0 0 0 0 0 0 0 0 0 0 0 4 33 32 95 94
100 100 100 100 100 100 44 97 63 34 5 5 5 19 87 48 99 40 34 5 3 0 0 0 0 0 0 0 0 0 0 0 0 0 0 0 0 10 8 23 22 29 44 90
100 96 100 100 100 100 100 51 34 12 7 22 17 63 97 100 99 100 5 5 0 3 0 0 0 0 0 0 0 0 0 0 0 0 0 0 0 0 0 0 0 29 50 98
100 100 100 100 100 96 100 100 92 41 8 22 14 10 100 100 100 100 21 5 5 0 0 0 0 0 0 0 0 0 0 0 0 0 0 0 0 0 0 0 0 16 54 89
100 100 100 100 100 100 100 96 99 52 38 28 100 50 100 100 100 100 80 72 5 4 0 0 0 0 0 0 0 0 0 0 0 0 0 0 0 0 4 10 7 6 34 65
100 100 100 100 100 100 100 100 100 89 84 24 84 36 100 100 100 100 100 100 34 5 3 0 0 0 0 0 0 0 0 0 0 0 0 0 0 0 0 5 54 25 49 31
100 100 100 100 100 100 100 100 100 80 68 85 50 35 100 100 100 100 100 100 97 29 5 5 0 0 0 0 0 0 0 0 0 0 0 0 0 3 5 9 5 5 5 37
100 100 100 100 100 100 100 100 100 70 10 45 36 97 100 100 100 100 100 100 100 100 100 77 6 1 1 0 0 0 0 0 0 0 0 0 0 3 5 44 27 14 6 5
75 100 100 100 73 100 100 100 100 100 100 100 96 100 100 100 100 100 100 100 100 100 100 100 97 80 57 33 19 5 5 2 2 0 0 0 0 5 5 93 100 5 3 5
91 73 98 88 79 98 39 92 69 47 48 5 17 47 100 100 100 100 100 100 100 100 100 81 100 100 100 100 100 100 100 97 87 41 16 5 16 49 30 16 9 5 4 0
100 43 50 100 100 82 74 38 62 69 62 88 5 82 100 100 100 100 100 100 100 98 8 58 8 16 23 89 100 100 100 100 99 81 87 98 100 51 5 5 4 2 4 0
100 48 67 54 93 100 80 83 72 19 60 7 5 85 100 100 100 100 100 100 97 100 62 5 5 6 5 5 5 30 52 77 80 90 69 97 68 51 62 48 5 5 4 5
100 76 9 5 30 54 59 60 80 8 5 5 4 61 100 100 100 100 100 100 93 12 5 4 4 5 7 5 5 5 5 12 22 34 31 42 22 5 5 9 5 6 7 6
100 93 81 15 14 99 100 93 93 75 57 92 4 3 98 100 92 31 12 5 5 5 5 0 0 0 0 0 0 0 0 0 0 2 0 1 5 4 5 72 25 50 96 100
84 82 99 90 100 100 49 6 11 73 41 100 69 77 98 100 100 100 91 99 60 53 73 5 4 4 5 2 4 5 3 6 5 5 33 6 8 36 93 100 100 100 73 34
17 95 89 54 99 92 38 4 20 52 84 100 99 10 87 70 100 95 29 5 5 95 97 88 19 5 2 1 1 0 5 3 6 15 5 8 5 5 7 32 35 8 6 9
62 36 57 92 90 92 17 1 5 2 50 67 30 17 6 3 59 88 100 98 31 25 31 5 5 3 5 3 4 0 3 5 2 5 5 5 5 5 5 5 20 5 26 18
100 100 100 100 100 96 93 87 100 100 44 7 1 0 0 0 3 22 13 5 5 7 91 94 15 5 1 2 5 3 3 5 5 4 3 10 99 64 26 5 4 5 5 5
33 70 60 86 94 66 1 100 100 100 51 5 85 100 100 100 75 82 56 8 10 5 8 8 5 5 5 5 6 5 3 5 97 96 82 100 98 100 100 100 100 100 49 22
100 100 100 100 100 75 4 16 18 52 86 81 88 100 100 100 98 36 43 40 5 5 5 5 7 15 22 72 71 69 80 77 47 100 100 100 100 100 100 95 80 57 74 85
100 100 100 100 100 79 3 2 17 48 41 77 94 96 100 98 83 51 5 6 4 3 5 34 47 33 100 40 5 20 84 98 100 86 19 46 79 100 100 92 86 100 100 100
100 76 67 12 6 8 5 5 94 98 86 100 99 98 100 93 62 44 11 45 6 50 10 24 10 6 93 98 5 98 96 98 67 100 100 100 100 100 100 100 100 100 100 100
100 100 96 91 53 82 31 19 17 58 38 56 78 79 47 33 40 34 46 10 5 5 21 29 15 24 80 100 99 83 98 79 71 84 100 100 100 86 91 99 100 100 100 100
100 100 100 100 100 100 74 51 100 22 4 4 9 28 20 5 5 49 4 4 1 0 1 5 5 30 5 42 37 77 97 100 100 76 90 100 100 100 100 56 98 94 95 95
21 30 22 32 27 33 50 78 58 17 0 0 2 0 0 0 0 0 0 4 3 5 5 6 5 35 14 60 57 13 90 99 79 55 100 95 100 99 100 100 100 100 100 100

GFSCGP_prec_cloud_072.txt.gz
Cloud_Cover
100 100 100 100 66 100 100 100 100 100 100 85 5 5 5 5 4 5 19 22 5 5 0 0 0 0 0 0 0 0 0 0 0 6 21 7 41 79 99 100 100 100 100 99
100 100 100 100 100 100 88 65 100 87 100 15 25 7 5 5 12 5 5 9 5 5 0 1 2 0 0 0 0 0 0 0 0 0 0 0 0 9 11 49 90 100 100 100
100 100 100 100 98 100 91 99 88 66 22 5 5 33 5 20 82 5 5 5 5 5 5 5 2 0 0 0 0 0 0 0 0 0 1 2 1 2 7 34 41 100 100 100
100 100 99 100 100 100 100 77 18 24 5 5 22 65 46 62 100 53 25 9 32 6 5 3 0 0 0 0 0 0 0 0 0 0 0 0 0 1 0 0 3 59 100 100
100 100 100 99 99 47 76 80 35 42 95 19 58 32 100 60 89 96 50 63 71 20 17 5 4 0 0 0 0 0 0 0 0 0 0 0 0 0 0 0 6 36 89 100
100 100 97 100 100 100 100 95 22 12 10 6 14 12 100 100 88 100 100 100 100 98 5 0 1 2 0 0 0 0 0 0 0 0 0 0 0 0 2 0 2 27 79 100
100 100 100 100 100 100 100 100 100 97 16 5 5 22 100 100 100 100 100 98 13 5 5 5 5 5 0 3 0 0 0 0 0 0 0 0 0 0 0 0 5 50 39 69
100 100 100 100 100 100 100 100 100 36 36 96 8 20 76 100 100 100 100 100 20 5 5 5 5 5 5 5 5 0 0 0 0 0 0 0 0 0 0 0 5 72 100 10
100 100 100 100 100 100 100 99 100 100 63 34 56 100 100 100 100 100 100 100 100 100 84 14 5 5 5 5 5 5 5 5 5 5 1 0 0 0 0 2 5 22 83 83
100 100 100 100 100 100 100 100 100 100 100 90 97 100 100 100 100 100 100 100 100 100 100 100 100 77 74 76 81 87 74 44 30 9 5 7 5 5 5 5 11 86 82 5
100 100 100 100 100 100 100 100 100 100 100 100 100 100 100 100 100 100 100 100 100 100 100 100 100 100 100 100 100 100 100 100 100 100 100 82 46 19 24 21 49 56 16 8
99 95 83 94 59 84 95 100 100 73 100 100 42 88 100 100 100 100 100 100 99 100 70 86 100 100 100 100 100 100 100 100 100 100 100 100 100 86 70 97 99 100 94 32
99 100 100 100 94 87 65 50 100 88 58 22 6 100 100 100 100 100 100 98 55 5 21 93 47 86 99 100 100 100 100 100 100 100 100 100 100 100 100 100 100 100 100 100
100 100 100 100 100 100 100 100 100 94 9 14 47 100 100 100 100 100 100 100 60 98 100 73 72 69 88 99 99 98 98 96 83 79 65 100 100 100 100 100 100 100 100 100
100 100 100 100 100 100 100 100 100 100 100 89 98 92 100 100 100 95 99 47 47 53 56 20 16 26 56 48 47 40 21 2 16 8 18 29 12 23 67 94 86 90 100 100
100 100 100 100 100 100 58 5 26 72 89 6 5 5 100 100 99 99 9 6 22 5 5 1 0 0 0 0 0 2 2 1 4 5 19 7 5 76 23 43 28 93 99 91
100 100 100 100 100 100 22 5 9 5 5 100 92 68 76 93 21 43 39 5 5 5 5 5 4 5 4 0 0 2 4 4 4 4 5 5 8 2 0 2 2 5 13 42
100 100 100 100 100 83 1 4 4 5 23 91 10 3 4 22 82 17 5 5 4 4 5 5 5 2 0 1 2 0 2 1 1 5 5 14 5 5 5 5 5 4 5 63
100 100 100 100 98 47 0 3 86 99 93 100 31 5 5 4 1 5 5 5 5 5 5 5 5 5 10 14 30 81 86 91 55 5 13 71 16 5 56 5 7 5 49 84
100 100 100 100 95 56 0 3 13 100 7 12 100 82 56 12 5 5 3 3 2 5 5 5 6 5 5 5 5 5 5 46 18 7 5 5 10 5 5 36 100 46 54 78
100 100 100 100 100 50 26 5 38 96 48 72 33 89 44 12 4 4 4 4 4 5 3 2 0 0 0 0 2 5 5 3 1 4 1 5 5 14 26 72 78 56 58 100
100 100 77 100 100 72 5 84 100 100 100 58 93 97 96 100 100 73 5 1 0 1 5 5 2 5 4 0 2 5 5 5 11 32 52 56 25 35 97 74 73 71 47 96
100 100 100 100 100 84 31 37 73 93 100 57 6 49 76 35 58 79 99 55 94 100 5 5 5 5 5 4 5 5 8 5 5 40 100 98 86 90 52 38 68 100 100 99
100 100 100 100 100 100 90 100 100 100 100 100 100 100 100 100 97 73 8 5 5 28 26 27 21 24 28 11 5 17 97 100 69 60 60 100 65 22 12 94 92 100 100 100
100 100 100 100 100 100 100 100 82 51 68 94 98 100 92 71 96 96 76 68 86 83 5 5 5 5 5 5 5 44 8 97 100 83 44 65 78 83 46 23 49 100 100 100
100 100 100 100 100 100 100 100 100 100 100 100 100 100 98 78 35 19 14 31 5 5 5 5 5 5 5 10 32 5 5 38 93 100 96 100 90 46 26 86 100 100 100 95

GFSCGP_prec_cloud_075.txt.gz
Cloud_Cover
100 100 100 100 100 100 100 100 100 100 100 100 100 100 100 100 35 6 0 1 0 0 0 0 0 5 0 0 0 0 0 0 0 4 60 100 100 100 100 100 100 100 100 76
100 100 100 100 100 48 93 100 100 100 100 98 100 100 100 100 100 26 5 4 0 0 0 0 3 0 0 0 0 0 0 0 0 0 0 0 48 99 100 100 100 100 100 100
100 100 100 100 100 62 100 100 100 100 100 100 100 100 85 100 100 60 5 5 0 0 0 0 0 4 3 5 0 0 0 0 0 0 1 9 35 41 100 100 100 100 100 100
100 100 100 100 100 100 100 100 100 100 100 100 92 100 100 98 100 74 6 5 1 0 0 0 0 1 0 0 0 0 0 0 0 0 0 0 0 17 20 52 100 100 100 100
100 100 100 100 100 100 100 100 55 5 85 55 94 17 100 100 82 7 34 5 5 2 0 0 0 0 0 0 1 5 4 0 0 0 0 0 0 0 0 0 14 47 96 100
100 94 100 100 100 82 88 20 18 9 21 8 76 59 100 100 60 7 5 5 5 5 5 5 5 4 5 5 5 5 7 5 5 1 0 0 0 0 17 17 18 46 93 100
98 99 95 100 100 100 100 100 100 95 55 100 71 19 98 100 100 95 5 5 5 5 3 5 5 5 5 5 1 5 5 5 19 38 10 6 5 4 3 4 3 24 70 100
100 100 100 100 100 100 100 100 82 90 94 70 29 99 100 100 85 100 100 82 5 5 5 5 5 5 5 5 5 5 5 28 29 38 25 13 68 69 56 41 30 55 33 5
100 100 100 100 100 100 100 100 100 100 33 50 49 61 88 97 24 5 96 100 100 100 20 6 5 5 5 5 5 5 5 5 9 62 84 74 60 92 100 100 100 95 81 78
100 100 100 100 100 99 100 100 100 99 38 42 80 78 65 93 60 31 5 93 100 100 100 100 100 76 49 8 7 42 12 5 5 5 11 66 56 15 29 10 49 66 76 81
100 100 100 100 100 100 100 100 100 100 88 18 46 100 100 100 100 100 100 96 100 100 100 100 100 100 100 100 100 100 100 100 100 100 99 93 96 99 100 98 100 100 100 100
100 100 100 100 100 100 100 100 100 100 100 100 100 100 100 100 100 100 100 100 100 100 100 100 100 100 100 100 100 100 100 100 100 100 100 100 100 100 100 100 100 100 100 100
100 100 100 100 98 89 100 100 100 100 100 100 100 100 100 100 100 100 100 100 100 82 84 100 96 100 100 100 100 100 100 100 100 100 100 100 100 100 100 100 100 100 100 100
100 86 80 99 100 100 100 100 100 100 43 27 69 94 100 100 100 100 100 100 100 100 100 100 100 100 100 100 100 100 100 100 100 100 100 100 100 100 100 100 100 100 93 89
100 100 98 65 96 100 97 100 100 86 75 83 100 100 100 100 100 100 95 99 78 84 64 59 37 58 68 100 100 100 98 66 94 100 98 98 100 97 100 100 100 92 93 80
100 100 100 100 100 100 100 100 100 100 100 100 100 100 100 100 100 100 100 100 100 71 55 47 5 5 15 29 33 27 43 26 5 1 4 5 5 9 6 6 5 5 4 5
100 100 100 100 100 100 100 100 100 100 100 100 100 100 100 100 100 100 88 34 28 21 9 10 6 5 2 5 5 5 5 4 5 3 0 0 2 4 18 66 47 90 81 16
100 100 100 100 100 100 100 100 100 100 100 100 100 100 100 100 100 100 43 15 16 22 6 5 5 5 3 1 3 3 3 4 0 0 0 0 0 0 2 2 4 8 16 6
100 100 100 100 100 19 6 41 100 100 100 100 100 96 76 85 97 100 12 5 5 5 5 2 3 5 2 2 0 0 0 0 0 0 2 3 4 0 3 5 5 5 11 17
100 100 100 99 96 36 5 96 95 100 65 100 100 100 100 30 6 48 5 5 2 5 5 5 5 5 5 5 5 5 5 5 5 6 59 7 5 5 5 6 37 28 29 66
100 100 100 100 100 10 5 5 63 100 83 100 100 100 100 76 81 7 5 5 2 5 4 5 4 0 0 0 1 4 4 4 5 5 5 5 5 5 5 27 37 46 28 50
100 100 100 100 100 44 35 94 85 87 100 100 98 100 100 100 77 14 5 5 0 0 0 0 0 0 69 60 0 4 5 5 5 5 5 5 5 5 6 44 26 24 78 57
100 100 100 100 100 91 11 9 87 100 100 100 99 92 100 100 100 100 100 100 99 99 96 94 32 4 8 6 4 5 5 8 92 98 25 20 5 5 5 88 41 72 95 99
100 100 100 100 100 100 100 94 57 86 89 86 30 10 6 13 29 7 5 18 23 75 85 51 16 16 84 100 100 89 31 5 95 100 100 50 21 13 6 6 16 40 67 95
100 100 100 100 100 100 100 100 100 100 100 100 100 100 100 96 97 100 100 100 100 100 100 100 95 92 100 100 97 98 13 44 77 85 100 100 100 100 84 19 27 51 5 39
100 100 100 100 100 100 100 100 100 100 100 100 100 100 100 100 100 93 100 100 90 83 16 5 5 25 21 5 5 5 15 58 84 100 92 100 100 100 99 95 64 24 87 92